TimeEDT,TemperatureF,Dew PointF,Humidity,Sea Level PressureIn,VisibilityMPH,Wind Direction,Wind SpeedMPH,Gust SpeedMPH,PrecipitationIn,Events,Conditions,WindDirDegrees,DateUTC
12:53 AM,79.0,73.9,84,30.08,10.0,South,5.8,-,N/A,,Clear,170,2013-05-11 04:53:00
1:53 AM,78.1,75.0,90,30.07,10.0,South,3.5,-,N/A,,Clear,180,2013-05-11 05:53:00
2:53 AM,78.1,75.0,90,30.05,10.0,Calm,Calm,-,N/A,,Clear,0,2013-05-11 06:53:00
3:53 AM,77.0,73.9,90,30.05,10.0,Calm,Calm,-,N/A,,Clear,0,2013-05-11 07:53:00
4:53 AM,77.0,75.0,94,30.05,10.0,Calm,Calm,-,N/A,,Partly Cloudy,0,2013-05-11 08:53:00
5:53 AM,75.0,73.9,96,30.04,10.0,Calm,Calm,-,N/A,,Clear,0,2013-05-11 09:53:00
6:53 AM,75.0,73.9,96,30.05,10.0,Calm,Calm,-,N/A,,Clear,0,2013-05-11 10:53:00
7:53 AM,79.0,73.9,84,30.07,10.0,SSE,9.2,-,N/A,,Partly Cloudy,150,2013-05-11 11:53:00
8:53 AM,81.0,73.0,77,30.07,10.0,SSE,11.5,-,N/A,,Clear,160,2013-05-11 12:53:00
9:53 AM,82.9,73.9,74,30.09,10.0,SSE,13.8,-,N/A,,Scattered Clouds,150,2013-05-11 13:53:00
10:53 AM,82.9,73.0,72,30.08,10.0,South,11.5,18.4,0.00,,Scattered Clouds,170,2013-05-11 14:53:00
11:53 AM,84.0,73.9,72,30.07,10.0,SSE,16.1,25.3,N/A,,Scattered Clouds,150,2013-05-11 15:53:00
12:53 PM,84.0,72.0,67,30.06,10.0,SSE,19.6,25.3,N/A,,Clear,150,2013-05-11 16:53:00
1:53 PM,84.9,72.0,65,30.04,10.0,SSE,16.1,25.3,N/A,,Scattered Clouds,160,2013-05-11 17:53:00
2:53 PM,86.0,73.9,67,30.03,10.0,SSE,13.8,24.2,N/A,,Scattered Clouds,160,2013-05-11 18:53:00
3:53 PM,82.0,71.1,69,30.04,10.0,SSW,12.7,-,N/A,,Scattered Clouds,210,2013-05-11 19:53:00
4:53 PM,82.0,73.0,74,30.00,10.0,SSE,16.1,23.0,0.03,,Scattered Clouds,150,2013-05-11 20:53:00
5:53 PM,80.1,73.0,79,30.00,10.0,South,10.4,-,N/A,,Scattered Clouds,170,2013-05-11 21:53:00
6:53 PM,80.1,72.0,76,30.01,10.0,South,11.5,-,N/A,,Clear,170,2013-05-11 22:53:00
7:53 PM,80.1,73.0,79,30.03,10.0,South,10.4,-,0.00,,Mostly Cloudy,190,2013-05-11 23:53:00
8:41 PM,73.4,71.6,94,30.06,2.0,NNW,10.4,21.9,0.17,Rain,Heavy Rain,340,2013-05-12 00:41:00
8:45 PM,71.6,71.6,100,30.06,3.0,NNW,6.9,-,0.17,Rain,Rain,330,2013-05-12 00:45:00
8:53 PM,72.0,71.1,97,30.06,9.0,ENE,5.8,-,0.18,Rain,Light Rain,60,2013-05-12 00:53:00
9:53 PM,73.9,73.0,97,30.06,10.0,Calm,Calm,-,0.00,,Partly Cloudy,0,2013-05-12 01:53:00
10:53 PM,75.0,73.0,94,30.07,10.0,Calm,Calm,-,N/A,,Overcast,0,2013-05-12 02:53:00